Погода в Забиде

Йемен     14°11′33″N   43°18′30″E
темп.,
°C
ветер,
м/с
пор.,
м/с
влажн.,
%
обл.,
%
осадки,
мм/ч
давл.,
гПа
погр.,
м
27 ноября, сб
сб2700:00+28ю34630 0.0 1013184
03:00+26юз33750 0.0 1013145
06:00+26ююз22800 0.0 101460
09:00+29юз21590 0.0 1015674
12:00+33зюз43430 0.0 10131435
15:00+32зюз54450 0.0 10111009
18:00+29юз43570 0.1 1013328
21:00+28ююв23592 0.1 101496
28 ноября, вс
вс2800:00+27юз22614 0.0 101334
03:00+26юз22700 0.0 101229
06:00+25сз11780 0.0 101318
09:00+29ссз22550 0.0 1015609
12:00+34з33350 0.0 10121764
15:00+32зюз64465 0.0 1010813
18:00+28ююз44620 0.0 1012333
21:00+28ю23625 0.0 1014128
29 ноября, пн
пн2900:00+26юз34690 0.0 1013134
03:00+25ююз11680 0.0 101215
06:00+24сз11730 0.0 101413
09:00+29сз22560 0.0 1015656
12:00+33з43370 0.0 10131614
15:00+31зюз65470 0.0 1011828
18:00+27ю56630 0.0 1013416
21:00+27ю59600 0.0 1015321
30 ноября, вт
вт3000:00+25ю35640 0.0 1014118
03:00+24ю11690 0.0 101320
06:00+24ююз11710 0.0 101312
09:00+28ююз21550 0.0 1015619
12:00+32зюз53390 0.0 10121597
15:00+32юз64440 0.0 10101122
18:00+28ююз56590 0.0 1011364
21:00+27ю48560 0.0 1013235
1 декабря, ср
ср100:00+25ююз34630 0.0 101284
03:00+24ю24690 0.0 101169
06:00+23ю22690 0.0 101225
09:00+28ююз21510 0.0 1013625
12:00+33юз53370 0.0 10111690
15:00+32ююз76420 0.0 10081014
18:00+28ю710560 0.0 1010469
21:00+27ю610490 0.0 1011249